Weather History for KGLR - February, 2013

Change the Weather History Date:

Monday, February 18, 2013

  Actual Average Record
Temperature  
Mean Temperature 22 °F -  
Max Temperature 35 °F 30 °F 53 °F (1981)
Min Temperature 10 °F 14 °F -20 °F (1979)
Degree Days  
Heating Degree Days 42    
Moisture  
Dew Point 18 °F    
Average Humidity 73    
Maximum Humidity 96    
Minimum Humidity 59    
Precipitation  
Precipitation 0.00 in - - ()
Sea Level Pressure  
Sea Level Pressure 29.76 in    
Wind  
Wind Speed 12 mph (SSE)    
Max Wind Speed 18 mph    
Max Gust Speed 24 mph    
Visibility 8 miles    
Events Rain    
Averages and records for this station are not official NWS values.
T = Trace of Precipitation, MM = Missing Value Source: NWS Daily Summary

Daily Weather History Graph

Daily Weather History Graph

Search for Another Location

Airport or City:

Trip Planner

Search our weather history database for the weather conditions in past years. The results will help you decide how hot, cold, wet, or windy it might be!

Date:

Astronomy

Feb. 18, 2013 Rise Set
Actual Time 7:34 AM EST 6:11 PM EST
Civil Twilight 7:04 AM EST 6:41 PM EST
Nautical Twilight 6:30 AM EST 7:15 PM EST
Astronomical Twilight 5:56 AM EST 7:49 PM EST
Moon 11:49 AM EST (2/18) 2:20 AM EST (2/18)
Length of Visible Light 11h 36m
Length of Day
10h 36m
First Quarter, 58% of the Moon is Illuminated
Feb 18
First Quarter
Feb 25
Full
Mar 4
Last Quarter
Mar 11
New
Mar 19
First Quarter

Hourly Weather History & Observations

Time (EST) Temp. Windchill Dew Point Humidity Pressure Visibility Wind Dir Wind Speed Gust Speed Precip Events Conditions
12:53 AM 10.9 °F -0.8 °F 3.9 °F 73% 30.13 in 10.0 mi South 8.1 mph - N/A   Overcast
1:53 AM 12.0 °F -2.7 °F 5.0 °F 73% 30.12 in 10.0 mi South 12.7 mph - N/A   Overcast
2:53 AM 12.0 °F -2.7 °F 5.0 °F 73% 30.11 in 10.0 mi South 12.7 mph - N/A   Overcast
3:53 AM 12.9 °F -0.9 °F 6.1 °F 74% 30.08 in 10.0 mi South 11.5 mph - N/A   Overcast
5:53 AM 16.0 °F 3.6 °F 8.1 °F 71% 30.03 in 10.0 mi South 10.4 mph - N/A   Overcast
7:53 AM 16.0 °F 2.9 °F 8.1 °F 71% 29.96 in 10.0 mi SSE 11.5 mph 19.6 mph N/A   Overcast
9:53 AM 19.0 °F 5.6 °F 10.0 °F 68% 29.91 in 10.0 mi SSE 13.8 mph 20.7 mph N/A   Mostly Cloudy
10:53 AM 21.9 °F 8.7 °F 12.0 °F 66% 29.87 in 10.0 mi SSE 15.0 mph 23.0 mph N/A   Clear
11:53 AM 24.1 °F 11.5 °F 14.0 °F 65% 29.84 in 10.0 mi SSE 15.0 mph 23.0 mph N/A   Clear
12:53 PM 28.0 °F 17.0 °F 16.0 °F 61% 29.80 in 10.0 mi SSE 13.8 mph 21.9 mph N/A   Clear
1:53 PM 30.0 °F 21.1 °F 18.0 °F 61% 29.76 in 10.0 mi South 10.4 mph 18.4 mph N/A   Clear
2:53 PM 32.0 °F 21.6 °F 19.0 °F 59% 29.72 in 10.0 mi SSE 15.0 mph 23.0 mph N/A   Clear
3:53 PM 34.0 °F 23.0 °F 21.0 °F 59% 29.69 in 10.0 mi South 18.4 mph 24.2 mph N/A   Clear
4:53 PM 34.0 °F 25.5 °F 21.0 °F 59% 29.68 in 10.0 mi SSE 11.5 mph - N/A   Clear
5:53 PM 35.1 °F 26.4 °F 23.0 °F 61% 29.67 in 10.0 mi South 12.7 mph - N/A   Partly Cloudy
6:53 PM 35.1 °F 26.4 °F 23.0 °F 61% 29.66 in 10.0 mi South 12.7 mph - N/A   Overcast
7:18 PM 33.8 °F 27.0 °F 24.8 °F 70% 29.60 in 10.0 mi SSE 8.1 mph - N/A   Overcast
7:53 PM 33.1 °F 23.0 °F 23.0 °F 66% 29.64 in 10.0 mi SSE 15.0 mph 21.9 mph N/A   Overcast
8:53 PM 32.0 °F 21.6 °F 25.0 °F 75% 29.60 in 10.0 mi SSE 15.0 mph 24.2 mph N/A   Overcast
9:29 PM 30.2 °F 20.2 °F 26.6 °F 86% 29.53 in 7.0 mi SE 12.7 mph 21.9 mph N/A   Overcast
9:53 PM 30.0 °F 20.0 °F 27.0 °F 88% 29.57 in 3.0 mi SSE 12.7 mph - 0.00 in Rain Light Freezing Rain
10:03 PM 30.2 °F 20.8 °F 28.4 °F 93% 29.51 in 2.5 mi SSE 11.5 mph - 0.00 in Rain Light Freezing Rain
10:18 PM 30.2 °F 21.3 °F 28.4 °F 93% 29.50 in 4.0 mi SSE 10.4 mph - 0.00 in Rain Light Freezing Rain
10:53 PM 30.9 °F 22.2 °F 28.9 °F 92% 29.53 in 3.0 mi SSE 10.4 mph - 0.00 in Rain Light Freezing Rain
11:53 PM 33.1 °F 23.9 °F 32.0 °F 96% 29.48 in 4.0 mi SSE 12.7 mph - 0.00 in Rain Light Rain